Location: ??
(34.7252°N, 135.5457°E)
Time: 09:27:26
(UTC+00:00)

ADEOS Rocket - Pass Details

Date: 24 September 2020
Orbit: 858 x 1307 km, 98.7° (Epoch: 23 October)

Event Time Altitude Azimuth Distance (km) Brightness Sun altitude
Rises 20:16:33 0° 192° (SSW) 4,048 6.1 -7.3°
Reaches altitude 10° 20:19:36 10° 203° (SSW) 3,021 5.3 -6.7°
Maximum altitude 20:25:29 31° 262° (W) 1,782 3.9 -5.5°
Drops below altitude 10° 20:30:55 10° 323° (NW) 2,763 5.0 -4.3°
Sets 20:33:37 0° 334° (NNW) 3,652 5.8 -3.8°
